Orbital Elements at Epoch 2459000.5 (2020-May-31.0) TDB
Reference: JPL 17 (heliocentric ecliptic J2000)
Element | Value | Uncertainty (1-sigma) | Units |
e | .1114793633416703 | 5.78e-08 | |
a | 2.641488523133416 | 3.4975e-08 | au |
q | 2.347017064300174 | 1.4599e-07 | au |
i | 8.200167916415973 | 7.7656e-06 | deg |
node | 312.4854733172969 | 4.1417e-05 | deg |
peri | 93.09788927484342 | 5.5776e-05 | deg |
M | 143.5212679383793 | 3.8829e-05 | deg |
tp | 2458375.348495466942 (2018-Sep-13.84849547) | 0.00016365 | TDB |
period | 1568.091927173662 4.29 | 3.1144e-05 8.527e-08 | d yr |
n | .2295783772376573 | 4.5597e-09 | deg/d |
Q | 2.935959981966658 | 3.8875e-08 | au |
|
| | Orbit Determination Parameters
Additional Information
|